Newberry, SC

9:18 AM EDT on April 30, 2017 (GMT -0400)
Newberry

Weather History for KEOE - October, 2012

Change the Weather History Date:

Thursday, October 18, 2012

  Actual Average (KFDW) Record (KFDW)
Temperature  
Mean Temperature 66 °F -  
Max Temperature 78 °F 74 °F 84 °F (2010)
Min Temperature 53 °F 48 °F 42 °F (2015)
Growing Degree Days 16 (Base 50)    
Moisture  
Dew Point 57 °F    
Average Humidity 79    
Maximum Humidity 100    
Minimum Humidity 44    
Precipitation  
Precipitation 0.00 in - - ()
Sea Level Pressure  
Sea Level Pressure 29.87 in    
Wind  
Wind Speed 4 mph (South)    
Max Wind Speed 14 mph    
Max Gust Speed 18 mph    
Visibility 9 miles    
Events      
Averages and records for this station are not official NWS values.
T = Trace of Precipitation, MM = Missing Value Source: NWS Daily Summary

Daily Weather History Graph

Daily Weather History Graph

Search for Another Location

Airport or City:

Trip Planner

Search our weather history database for the weather conditions in past years. The results will help you decide how hot, cold, wet, or windy it might be!

Date:

Astronomy

Oct. 18, 2012 Rise Set
Actual Time 7:34 AM EDT 6:47 PM EDT
Civil Twilight 7:09 AM EDT 7:13 PM EDT
Nautical Twilight 6:40 AM EDT 7:42 PM EDT
Astronomical Twilight 6:11 AM EDT 8:11 PM EDT
Moon 11:06 AM EDT (10/18) 9:29 PM EDT (10/18)
Length of Visible Light 12h 03m
Length of Day
11h 13m
Waxing Crescent, 14% of the Moon is Illuminated
Oct 18
Waxing Crescent
Oct 21
First Quarter
Oct 29
Full
Nov 6
Last Quarter
Nov 13
New

Hourly Weather History & Observations

Time (EDT) Temp. Dew Point Humidity Pressure Visibility Wind Dir Wind Speed Gust Speed Precip Events Conditions
12:15 AM 59.0 °F 51.8 °F 77% 29.94 in 10.0 mi SSE 4.6 mph - N/A   Clear
12:35 AM 57.2 °F 51.8 °F 82% 29.93 in 10.0 mi SSE 4.6 mph - N/A   Clear
12:55 AM 57.2 °F 51.8 °F 82% 29.92 in 10.0 mi SE 3.5 mph - N/A   Clear
1:15 AM 55.4 °F 51.8 °F 88% 29.92 in 10.0 mi Calm Calm - N/A   Clear
1:35 AM 55.4 °F 51.8 °F 88% 29.92 in 10.0 mi SE 3.5 mph - N/A   Clear
1:55 AM 55.4 °F 53.6 °F 94% 29.92 in 10.0 mi Calm Calm - N/A   Clear
2:35 AM 53.6 °F 53.6 °F 100% 29.92 in 10.0 mi SE 3.5 mph - N/A   Mostly Cloudy
2:55 AM 55.4 °F 55.4 °F 100% 29.92 in 10.0 mi Calm Calm - N/A   Scattered Clouds
3:15 AM 53.6 °F 53.6 °F 100% 29.91 in 10.0 mi Calm Calm - N/A   Clear
3:35 AM 53.6 °F 53.6 °F 100% 29.91 in 10.0 mi Calm Calm - N/A   Clear
3:55 AM 53.6 °F 53.6 °F 100% 29.91 in 10.0 mi SSE 3.5 mph - N/A   Clear
4:15 AM 53.6 °F 53.6 °F 100% 29.91 in 10.0 mi SE 4.6 mph - N/A   Clear
4:35 AM 55.4 °F 55.4 °F 100% 29.91 in 10.0 mi SE 4.6 mph - N/A   Clear
4:55 AM 55.4 °F 55.4 °F 100% 29.90 in 10.0 mi SE 4.6 mph - N/A   Clear
5:15 AM 55.4 °F 55.4 °F 100% 29.91 in 10.0 mi Calm Calm - N/A   Clear
5:35 AM 53.6 °F 53.6 °F 100% 29.91 in 7.0 mi Calm Calm - N/A   Clear
5:55 AM 53.6 °F 53.6 °F 100% 29.91 in 7.0 mi ESE 3.5 mph - N/A   Clear
6:15 AM 55.4 °F 55.4 °F 100% 29.91 in 7.0 mi Calm Calm - N/A   Clear
6:35 AM 55.4 °F 55.4 °F 100% 29.90 in 4.0 mi Calm Calm - N/A   Clear
6:55 AM 55.4 °F 55.4 °F 100% 29.90 in 5.0 mi ESE 3.5 mph - N/A   Clear
7:15 AM 55.4 °F 55.4 °F 100% 29.90 in 7.0 mi Calm Calm - N/A   Clear
7:35 AM 55.4 °F 55.4 °F 100% 29.91 in 5.0 mi ESE 3.5 mph - N/A   Clear
7:55 AM 55.4 °F 55.4 °F 100% 29.91 in 5.0 mi ESE 3.5 mph - N/A   Clear
8:15 AM 55.4 °F 55.4 °F 100% 29.93 in 7.0 mi Calm Calm - N/A   Clear
8:55 AM 53.6 °F 53.6 °F 100% 29.94 in 5.0 mi NNE 3.5 mph - N/A   Mostly Cloudy
9:15 AM 55.4 °F 55.4 °F 100% 29.93 in 7.0 mi Calm Calm - N/A   Scattered Clouds
9:35 AM 59.0 °F 59.0 °F 100% 29.91 in 7.0 mi Calm Calm - N/A   Clear
10:15 AM 62.6 °F 60.8 °F 94% 29.90 in 10.0 mi Calm Calm - N/A   Clear
10:35 AM 64.4 °F 60.8 °F 88% 29.89 in 10.0 mi SSE 3.5 mph - N/A   Clear
10:55 AM 68.0 °F 60.8 °F 78% 29.88 in 10.0 mi SSE 4.6 mph - N/A   Clear
11:15 AM 71.6 °F 62.6 °F 73% 29.86 in 10.0 mi SE 6.9 mph - N/A   Clear
11:35 AM 73.4 °F 60.8 °F 65% 29.87 in 10.0 mi SSE 5.8 mph - N/A   Scattered Clouds
12:15 PM 77.0 °F 60.8 °F 57% 29.89 in 10.0 mi SW 9.2 mph - N/A   Scattered Clouds
12:35 PM 75.2 °F 60.8 °F 61% 29.88 in 10.0 mi SW 4.6 mph - N/A   Scattered Clouds
12:55 PM 75.2 °F 59.0 °F 57% 29.87 in 10.0 mi WSW 4.6 mph - N/A   Mostly Cloudy
1:15 PM 75.2 °F 59.0 °F 57% 29.85 in 10.0 mi WSW 9.2 mph - N/A   Mostly Cloudy
1:35 PM 78.8 °F 59.0 °F 51% 29.84 in 10.0 mi West 8.1 mph - N/A   Mostly Cloudy
1:55 PM 78.8 °F 57.2 °F 47% 29.83 in 10.0 mi WSW 3.5 mph - N/A   Mostly Cloudy
2:15 PM 78.8 °F 55.4 °F 44% 29.83 in 10.0 mi SW 12.7 mph 17.3 mph N/A   Scattered Clouds
2:35 PM 78.8 °F 57.2 °F 47% 29.82 in 10.0 mi SSW 5.8 mph - N/A   Mostly Cloudy
2:55 PM 78.8 °F 57.2 °F 47% 29.81 in 10.0 mi WSW 11.5 mph 17.3 mph N/A   Overcast
3:15 PM 78.8 °F 57.2 °F 47% 29.81 in 10.0 mi SW 13.8 mph 18.4 mph N/A   Overcast
3:35 PM 78.8 °F 57.2 °F 47% 29.81 in 10.0 mi SSW 11.5 mph 16.1 mph N/A   Overcast
3:55 PM 78.8 °F 57.2 °F 47% 29.82 in 10.0 mi SW 12.7 mph - N/A   Overcast
4:15 PM 78.8 °F 57.2 °F 47% 29.81 in 10.0 mi SSW 8.1 mph - N/A   Overcast
4:35 PM 78.8 °F 57.2 °F 47% 29.81 in 10.0 mi SSW 6.9 mph - N/A   Overcast
4:55 PM 78.8 °F 55.4 °F 44% 29.81 in 10.0 mi SW 10.4 mph 16.1 mph N/A   Mostly Cloudy
5:15 PM 77.0 °F 55.4 °F 47% 29.81 in 10.0 mi SW 10.4 mph - N/A   Mostly Cloudy
5:35 PM 77.0 °F 57.2 °F 50% 29.81 in 10.0 mi SSW 5.8 mph - N/A   Overcast
5:55 PM 75.2 °F 59.0 °F 57% 29.82 in 10.0 mi SSW 3.5 mph - N/A   Overcast
6:15 PM 75.2 °F 59.0 °F 57% 29.82 in 10.0 mi SW 4.6 mph - N/A   Overcast
6:35 PM 73.4 °F 59.0 °F 61% 29.82 in 10.0 mi SSW 3.5 mph - N/A   Overcast
6:55 PM 73.4 °F 59.0 °F 61% 29.83 in 10.0 mi SW 4.6 mph - N/A   Overcast
7:15 PM 73.4 °F 59.0 °F 61% 29.83 in 10.0 mi WSW 5.8 mph - N/A   Overcast
7:55 PM 69.8 °F 60.8 °F 73% 29.82 in 10.0 mi Calm Calm - N/A   Scattered Clouds
8:15 PM 68.0 °F 60.8 °F 78% 29.83 in 10.0 mi Calm Calm - N/A   Mostly Cloudy
8:35 PM 68.0 °F 60.8 °F 78% 29.84 in 10.0 mi NNW 3.5 mph - N/A   Overcast
8:55 PM 69.8 °F 60.8 °F 73% 29.84 in 10.0 mi Calm Calm - N/A   Overcast
9:15 PM 68.0 °F 62.6 °F 83% 29.84 in 10.0 mi North 3.5 mph - N/A   Mostly Cloudy
9:55 PM 64.4 °F 62.6 °F 94% 29.83 in 10.0 mi Calm Calm - N/A   Overcast
10:15 PM 64.4 °F 62.6 °F 94% 29.84 in 10.0 mi Calm Calm - N/A   Overcast
10:35 PM 64.4 °F 62.6 °F 94% 29.83 in 10.0 mi Calm Calm - N/A   Overcast
10:55 PM 64.4 °F 64.4 °F 100% 29.83 in 10.0 mi Calm Calm - N/A   Overcast
11:15 PM 64.4 °F 62.6 °F 94% 29.83 in 10.0 mi Calm Calm - N/A   Overcast
11:55 PM 62.6 °F 62.6 °F 100% 29.82 in 10.0 mi Calm Calm - N/A   Scattered Clouds